This is the latest recevied weather packets stored in our database for station/object I2HLY-3. If no packets are shown the sender has not sent any weather packets the latest 1 day(s).
| Time | Temp. | Humidity | Pressure | Rain* | Wind** | Luminosity | Snow |
|---|---|---|---|---|---|---|---|
| 1778009549 | 13.89° C | 93% | 1011.1 hPa | 0 mm | 0 m/s | - | - |
| 1778008652 | 13.33° C | 93% | 1011 hPa | 0 mm | 0.45 m/s, 87° | - | - |
| 1778007753 | 13.33° C | 93% | 1010.8 hPa | 0 mm | 0.45 m/s, 82° | - | - |
| 1778006853 | 13.33° C | 93% | 1010.7 hPa | 0 mm | 0.45 m/s, 79° | - | - |
| 1778005936 | 13.33° C | 93% | 1010.8 hPa | 0 mm | 0.45 m/s, 98° | - | - |
| 1778005055 | 13.89° C | 92% | 1010.7 hPa | 0 mm | 1.34 m/s, 88° | - | - |
| 1778004155 | 13.89° C | 92% | 1010.7 hPa | 0 mm | 0.89 m/s, 94° | - | - |
| 1778003238 | 13.89° C | 93% | 1010.7 hPa | 0 mm | 1.34 m/s, 90° | - | - |
| 1778002340 | 13.89° C | 93% | 1010.7 hPa | 0 mm | 0.89 m/s, 40° | - | - |
| 1778001440 | 13.89° C | 93% | 1010.8 hPa | 0 mm | 1.34 m/s, 82° | - | - |
| 1778000546 | 13.33° C | 93% | 1010.8 hPa | 0 mm | 1.79 m/s, 84° | - | - |
| 1777999648 | 13.33° C | 93% | 1010.8 hPa | 0 mm | 0.89 m/s, 40° | - | - |
| 1777998750 | 13.33° C | 93% | 1011 hPa | 0 mm | 1.34 m/s, 61° | - | - |
| 1777997853 | 13.33° C | 93% | 1011 hPa | 0 mm | 1.34 m/s, 82° | - | - |
| 1777996955 | 13.33° C | 93% | 1011 hPa | 0 mm | 0.89 m/s, 35° | - | - |
| 1777996036 | 13.33° C | 93% | 1011.1 hPa | 0 mm | 1.34 m/s, 62° | - | - |
| 1777995142 | 13.33° C | 93% | 1011.2 hPa | 0 mm | 1.79 m/s, 103° | - | - |
| 1777994242 | 13.33° C | 93% | 1011.2 hPa | 0 mm | 1.34 m/s, 93° | - | - |
| 1777993344 | 13.33° C | 93% | 1011.3 hPa | 0 mm | 2.24 m/s, 104° | - | - |
| 1777992442 | 13.89° C | 93% | 1011.2 hPa | 0 mm | 1.79 m/s, 90° | - | - |
| 1777991548 | 13.89° C | 93% | 1011.3 hPa | 0 mm | 1.34 m/s, 75° | - | - |
| 1777990650 | 13.89° C | 93% | 1011.3 hPa | 0 mm | 2.24 m/s, 71° | - | - |
| 1777989751 | 13.89° C | 93% | 1011.3 hPa | 0 mm | 1.34 m/s, 97° | - | - |
| 1777988837 | 13.89° C | 92% | 1011.4 hPa | 0 mm | 1.34 m/s, 94° | - | - |
| 1777987938 | 13.89° C | 92% | 1011.5 hPa | 0 mm | 0.45 m/s, 68° | - | - |
* Rain latest hour (hover to see other rain measurements)
** Current wind speed in m/s (hover to see current wind gust speed)